When you browse on this site, cookies collect data to enhance your experience and personalize the content and advertising you see.
Visit our Privacy Policy to learn more. By continuing to use the site, you agree to this use of cookies and data.
  • In Austria
  • List of Countries
  • For 7 days
  • Water Temperature
  • Weather Map
  • News
  • Weather Widgets
  • user-avatar
    Login

    Hourly Weather Zorya Truda

    Today, 25 August, Sunday

    Time Temperature Precipitation Wind Pressure Humidity
    00:00 +27°C° 0 mm 6 mps 759 mmHg 52%
    01:00 +26°C° 0 mm 6 mps 759 mmHg 53%
    02:00 +26°C° 0 mm 4 mps 759 mmHg 56%
    03:00 +25°C° 0 mm 4 mps 759 mmHg 57%
    04:00 +25°C° 0 mm 4 mps 759 mmHg 57%
    05:00 +23°C° 0 mm 4 mps 759 mmHg 58%
    06:00 +25°C° 0 mm 5 mps 760 mmHg 55%
    07:00 +27°C° 0 mm 5 mps 760 mmHg 52%
    08:00 +28°C° 0 mm 5 mps 760 mmHg 50%
    09:00 +30°C° 0 mm 5 mps 760 mmHg 46%
    10:00 +33°C° 0 mm 5 mps 760 mmHg 41%
    11:00 +35°C° 0 mm 5 mps 760 mmHg 37%
    12:00 +35°C° 0 mm 5 mps 760 mmHg 35%
    13:00 +36°C° 0 mm 4 mps 760 mmHg 34%
    14:00 +36°C° 0 mm 4 mps 760 mmHg 31%
    15:00 +36°C° 0 mm 4 mps 760 mmHg 31%
    16:00 +35°C° 0 mm 4 mps 759 mmHg 32%
    17:00 +35°C° 0 mm 4 mps 759 mmHg 32%
    18:00 +33°C° 0 mm 4 mps 759 mmHg 34%
    19:00 +32°C° 0 mm 5 mps 760 mmHg 35%
    20:00 +30°C° 0 mm 5 mps 760 mmHg 37%
    21:00 +29°C° 0 mm 5 mps 760 mmHg 36%
    22:00 +28°C° 0 mm 5 mps 760 mmHg 36%
    23:00 +27°C° 0 mm 5 mps 760 mmHg 35%

    Tomorrow, 26 August, Monday

    Time Temperature Precipitation Wind Pressure Humidity
    00:00 +26°C° 0 mm 5 mps 760 mmHg 36%
    01:00 +25°C° 0 mm 5 mps 760 mmHg 37%
    02:00 +23°C° 0 mm 4 mps 761 mmHg 38%
    03:00 +22°C° 0 mm 4 mps 761 mmHg 40%
    04:00 +22°C° 0 mm 4 mps 761 mmHg 42%
    05:00 +21°C° 0 mm 3 mps 761 mmHg 43%
    06:00 +22°C° 0 mm 4 mps 761 mmHg 42%
    07:00 +25°C° 0 mm 4 mps 761 mmHg 41%
    08:00 +26°C° 0 mm 5 mps 761 mmHg 39%
    09:00 +28°C° 0 mm 5 mps 761 mmHg 35%
    10:00 +30°C° 0 mm 5 mps 761 mmHg 31%
    11:00 +33°C° 0 mm 5 mps 761 mmHg 26%
    12:00 +33°C° 0 mm 5 mps 761 mmHg 25%
    13:00 +34°C° 0 mm 4 mps 761 mmHg 24%
    14:00 +34°C° 0 mm 3 mps 760 mmHg 23%
    15:00 +34°C° 0 mm 3 mps 760 mmHg 23%
    16:00 +34°C° 0 mm 3 mps 760 mmHg 24%
    17:00 +34°C° 0 mm 3 mps 759 mmHg 24%
    18:00 +32°C° 0 mm 4 mps 759 mmHg 27%
    19:00 +29°C° 0 mm 4 mps 759 mmHg 29%
    20:00 +28°C° 0 mm 4 mps 759 mmHg 32%
    21:00 +27°C° 0 mm 4 mps 760 mmHg 35%
    22:00 +26°C° 0 mm 4 mps 760 mmHg 39%
    23:00 +25°C° 0 mm 4 mps 760 mmHg 42%

    Day after tomorrow, 27 August, Tuesday

    Time Temperature Precipitation Wind Pressure Humidity
    00:00 +25°C° 0 mm 4 mps 760 mmHg 46%
    01:00 +23°C° 0 mm 4 mps 760 mmHg 50%
    02:00 +22°C° 0 mm 4 mps 760 mmHg 53%
    03:00 +22°C° 0 mm 4 mps 760 mmHg 55%
    04:00 +21°C° 0 mm 4 mps 760 mmHg 57%
    05:00 +21°C° 0 mm 3 mps 760 mmHg 59%
    06:00 +22°C° 0 mm 4 mps 760 mmHg 53%
    07:00 +25°C° 0 mm 4 mps 760 mmHg 48%
    08:00 +26°C° 0 mm 4 mps 760 mmHg 42%
    09:00 +28°C° 0 mm 4 mps 760 mmHg 39%
    10:00 +29°C° 0 mm 4 mps 760 mmHg 35%
    11:00 +32°C° 0 mm 4 mps 760 mmHg 31%
    12:00 +32°C° 0 mm 4 mps 760 mmHg 29%
    13:00 +33°C° 0 mm 4 mps 760 mmHg 27%
    14:00 +34°C° 0 mm 4 mps 760 mmHg 25%
    15:00 +33°C° 0 mm 4 mps 759 mmHg 25%
    16:00 +33°C° 0 mm 4 mps 759 mmHg 25%
    17:00 +33°C° 0 mm 4 mps 759 mmHg 25%
    18:00 +30°C° 0 mm 4 mps 759 mmHg 28%
    19:00 +28°C° 0 mm 4 mps 759 mmHg 32%
    20:00 +26°C° 0 mm 4 mps 759 mmHg 35%
    21:00 +25°C° 0 mm 4 mps 759 mmHg 36%
    22:00 +23°C° 0 mm 4 mps 760 mmHg 38%
    23:00 +23°C° 0 mm 4 mps 760 mmHg 39%

    28 August, Wednesday

    Time Temperature Precipitation Wind Pressure Humidity
    00:00 +22°C° 0 mm 4 mps 760 mmHg 41%
    01:00 +21°C° 0 mm 4 mps 760 mmHg 43%
    02:00 +20°C° 0 mm 4 mps 760 mmHg 45%
    03:00 +20°C° 0 mm 4 mps 760 mmHg 48%
    04:00 +19°C° 0 mm 4 mps 760 mmHg 50%
    05:00 +19°C° 0 mm 4 mps 760 mmHg 53%
    06:00 +21°C° 0 mm 4 mps 760 mmHg 49%
    07:00 +22°C° 0 mm 4 mps 760 mmHg 46%
    08:00 +25°C° 0 mm 4 mps 760 mmHg 43%
    09:00 +27°C° 0 mm 4 mps 760 mmHg 40%
    10:00 +28°C° 0 mm 4 mps 760 mmHg 37%
    11:00 +29°C° 0 mm 4 mps 760 mmHg 34%
    12:00 +30°C° 0 mm 4 mps 759 mmHg 32%
    13:00 +32°C° 0 mm 4 mps 759 mmHg 31%
    14:00 +33°C° 0 mm 3 mps 759 mmHg 29%
    15:00 +31°C° 0 mm 3 mps 758 mmHg 29%
    16:00 +31°C° 0 mm 3 mps 758 mmHg 30%
    17:00 +31°C° 0 mm 3 mps 758 mmHg 30%
    18:00 +29°C° 0 mm 4 mps 758 mmHg 36%
    19:00 +28°C° 0 mm 4 mps 758 mmHg 41%
    20:00 +26°C° 0 mm 5 mps 758 mmHg 47%
    21:00 +25°C° 0 mm 4 mps 758 mmHg 47%
    22:00 +23°C° 0 mm 4 mps 758 mmHg 48%
    23:00 +23°C° 0 mm 4 mps 759 mmHg 48%

    29 August, Thursday

    Time Temperature Precipitation Wind Pressure Humidity
    00:00 +22°C° 0 mm 4 mps 758 mmHg 48%
    01:00 +21°C° 0 mm 4 mps 758 mmHg 47%
    02:00 +20°C° 0 mm 4 mps 758 mmHg 47%
    03:00 +20°C° 0 mm 4 mps 758 mmHg 50%
    04:00 +19°C° 0 mm 4 mps 758 mmHg 54%
    05:00 +18°C° 0 mm 4 mps 759 mmHg 57%
    06:00 +20°C° 0 mm 4 mps 759 mmHg 55%
    07:00 +21°C° 0 mm 5 mps 759 mmHg 52%
    08:00 +22°C° 0 mm 5 mps 759 mmHg 50%
    09:00 +25°C° 0 mm 5 mps 759 mmHg 46%
    10:00 +26°C° 0 mm 5 mps 759 mmHg 41%
    11:00 +28°C° 0 mm 5 mps 759 mmHg 37%
    12:00 +28°C° 0 mm 4 mps 759 mmHg 35%
    13:00 +29°C° 0 mm 4 mps 759 mmHg 33%
    14:00 +29°C° 0 mm 4 mps 759 mmHg 30%
    15:00 +29°C° 0 mm 4 mps 758 mmHg 30%
    16:00 +28°C° 0 mm 5 mps 758 mmHg 30%
    17:00 +28°C° 0 mm 5 mps 758 mmHg 30%
    18:00 +26°C° 0 mm 5 mps 758 mmHg 30%
    19:00 +23°C° 0 mm 5 mps 758 mmHg 30%
    20:00 +21°C° 0 mm 5 mps 759 mmHg 30%
    21:00 +20°C° 0 mm 5 mps 759 mmHg 32%
    22:00 +19°C° 0 mm 5 mps 759 mmHg 34%
    23:00 +17°C° 0 mm 5 mps 759 mmHg 37%

    30 August, Friday

    Time Temperature Precipitation Wind Pressure Humidity
    00:00 +16°C° 0 mm 5 mps 759 mmHg 41%
    01:00 +17°C° 0 mm 4 mps 759 mmHg 45%
    02:00 +15°C° 0 mm 4 mps 759 mmHg 49%
    03:00 +14°C° 0 mm 4 mps 759 mmHg 51%
    04:00 +14°C° 0 mm 4 mps 759 mmHg 52%
    05:00 +13°C° 0 mm 4 mps 759 mmHg 54%
    06:00 +15°C° 0 mm 4 mps 759 mmHg 50%
    07:00 +16°C° 0 mm 5 mps 760 mmHg 46%
    08:00 +19°C° 0 mm 5 mps 760 mmHg 41%
    09:00 +20°C° 0 mm 5 mps 760 mmHg 37%
    10:00 +22°C° 0 mm 5 mps 760 mmHg 32%
    11:00 +25°C° 0 mm 5 mps 760 mmHg 27%
    12:00 +26°C° 0 mm 5 mps 760 mmHg 26%
    13:00 +26°C° 0 mm 5 mps 760 mmHg 25%
    14:00 +27°C° 0 mm 4 mps 759 mmHg 24%
    15:00 +27°C° 0 mm 4 mps 759 mmHg 25%
    16:00 +27°C° 0 mm 4 mps 759 mmHg 26%
    17:00 +26°C° 0 mm 4 mps 759 mmHg 27%
    18:00 +25°C° 0 mm 4 mps 759 mmHg 32%
    19:00 +22°C° 0 mm 4 mps 759 mmHg 36%
    20:00 +21°C° 0 mm 4 mps 759 mmHg 41%
    21:00 +20°C° 0 mm 4 mps 760 mmHg 44%
    22:00 +20°C° 0 mm 3 mps 760 mmHg 46%
    23:00 +19°C° 0 mm 3 mps 760 mmHg 49%
    Show more